Location: Beddau
(51.5575°N, 3.3561°W)
Time: 12:54:43
(UTC+00:00)

USA 245 - Pass Details

Date: 03 March 2021
Orbit: 267 x 987 km, 97.9° (Epoch: 15 April)

Event Time Altitude Azimuth Distance (km) Brightness Sun altitude
Exits shadow 21:04:05 72° 25° (NNE) 952 4.3 -28.9°
Drops below altitude 10° 21:09:48 10° 348° (NNW) 2,725 7.3 -29.7°
Sets 21:12:25 0° 347° (NNW) 3,710 8.1 -30.0°
